Location: Barletta
(41.3170°N, 16.2830°E)
Time: 17:50:09
(UTC+02:00)

ISS - Pass Details

Date: 18 May 2021
Orbit: 417 x 422 km, 51.6° (Epoch: 18 June)

Event Time Altitude Azimuth Distance (km) Brightness Sun altitude
Rises 22:53:14 0° 289° (WNW) 2,364 0.8 -23.1°
Reaches altitude 10° 22:55:59 10° 313° (NW) 1,502 0.0 -23.3°
Maximum altitude 22:58:05 15° 351° (N) 1,217 -0.6 -23.5°
Drops below altitude 10° 23:00:12 10° 30° (NNE) 1,506 -0.6 -23.7°
Sets 23:02:57 0° 54° (NE) 2,372 0.2 -24.0°
Enters shadow 23:03:07 -1° 55° (NE) 2,433 0.2 -24.0°
